Location: Newark
(46.1292°N, 1.0086°W)
Time: 02:29:34
(UTC+00:00)

A-11 Canister half - Visible Passes

Search period start: 16 November 2019 00:00
Search period end: 26 November 2019 00:00
Orbit: 1527 x 1682 km, 47.3° (Epoch: 14 November)

Date Brightness Start Highest point End Pass type
(mag) Time Alt. Az. Time Alt. Az. Time Alt. Az.
16 Nov 9.3 17:50:52 10° WNW 18:00:23 68° SSW 18:09:39 10° SE visible
16 Nov 10.4 19:56:42 10° W 20:04:09 27° SW 20:09:10 17° S visible
17 Nov 9.3 17:29:11 10° WNW 17:38:47 70° SSW 17:48:04 10° SE visible
17 Nov 10.4 19:34:57 10° WNW 19:42:36 28° SW 19:49:44 11° S visible
18 Nov 9.3 17:07:31 10° WNW 17:17:10 72° SSW 17:26:30 10° SE visible
18 Nov 10.4 19:13:13 10° WNW 19:21:03 30° SW 19:28:44 10° S visible
19 Nov 9.3 16:45:52 10° WNW 16:55:33 74° SSW 17:04:55 10° ESE visible
19 Nov 10.4 18:51:29 10° WNW 18:59:30 32° SW 19:07:20 10° SSE visible
20 Nov 10.4 18:29:46 10° WNW 18:37:57 33° SW 18:45:57 10° SSE visible
21 Nov 10.4 18:08:02 10° WNW 18:16:23 35° SW 18:24:31 10° SSE visible
22 Nov 10.4 17:46:20 10° WNW 17:54:49 37° SW 18:03:06 10° SSE visible
23 Nov 10.4 17:24:37 10° WNW 17:33:15 38° SW 17:41:39 10° SSE visible
24 Nov 10.4 17:02:55 10° WNW 17:11:41 40° SW 17:20:11 10° SSE visible
25 Nov 10.4 16:41:13 10° WNW 16:50:06 42° SW 16:58:43 10° SSE visible
25 Nov 11.7 18:51:07 10° WSW 18:52:56 11° WSW 18:54:45 10° SW visible
